TimeCST,TemperatureF,Dew PointF,Humidity,Sea Level PressureIn,VisibilityMPH,Wind Direction,Wind SpeedMPH,Gust SpeedMPH,PrecipitationIn,Events,Conditions,WindDirDegrees,DateUTC
12:15 AM,39.2,30.2,70,29.57,10.0,SW,10.4,-,N/A,,Clear,220,2013-12-03 06:15:00
12:35 AM,41.0,30.2,65,29.56,10.0,SW,8.1,-,N/A,,Clear,220,2013-12-03 06:35:00
12:55 AM,41.0,30.2,65,29.56,10.0,SW,6.9,-,N/A,,Clear,230,2013-12-03 06:55:00
1:15 AM,42.8,30.2,61,29.56,10.0,SW,8.1,-,N/A,,Clear,230,2013-12-03 07:15:00
1:35 AM,35.6,28.4,75,29.56,10.0,WNW,5.8,-,N/A,,Clear,290,2013-12-03 07:35:00
1:55 AM,35.6,28.4,75,29.55,10.0,West,3.5,-,N/A,,Clear,280,2013-12-03 07:55:00
2:15 AM,35.6,26.6,70,29.55,10.0,West,3.5,-,N/A,,Clear,270,2013-12-03 08:15:00
2:35 AM,33.8,26.6,75,29.55,10.0,Calm,Calm,-,N/A,,Clear,0,2013-12-03 08:35:00
2:55 AM,33.8,26.6,75,29.55,10.0,West,3.5,-,N/A,,Clear,270,2013-12-03 08:55:00
3:15 AM,33.8,26.6,75,29.55,10.0,West,3.5,-,N/A,,Clear,270,2013-12-03 09:15:00
3:35 AM,33.8,26.6,75,29.56,10.0,Calm,Calm,-,N/A,,Clear,0,2013-12-03 09:35:00
3:55 AM,30.2,24.8,80,29.55,10.0,West,3.5,-,N/A,,Clear,260,2013-12-03 09:55:00
4:15 AM,30.2,26.6,86,29.55,10.0,West,3.5,-,N/A,,Clear,260,2013-12-03 10:15:00
4:35 AM,30.2,24.8,80,29.55,10.0,West,3.5,-,N/A,,Clear,260,2013-12-03 10:35:00
4:55 AM,28.4,23.0,80,29.55,10.0,WSW,4.6,-,N/A,,Clear,250,2013-12-03 10:55:00
5:15 AM,30.2,24.8,80,29.55,10.0,Calm,Calm,-,N/A,,Clear,0,2013-12-03 11:15:00
5:35 AM,30.2,24.8,80,29.55,10.0,Calm,Calm,-,N/A,,Clear,0,2013-12-03 11:35:00
5:55 AM,30.2,24.8,80,29.54,10.0,Calm,Calm,-,N/A,,Clear,0,2013-12-03 11:55:00
6:15 AM,30.2,24.8,80,29.54,10.0,SSW,4.6,-,N/A,,Clear,210,2013-12-03 12:15:00
6:35 AM,28.4,23.0,80,29.53,10.0,South,4.6,-,N/A,,Clear,180,2013-12-03 12:35:00
6:55 AM,30.2,24.8,80,29.52,10.0,South,4.6,-,N/A,,Clear,180,2013-12-03 12:55:00
7:15 AM,32.0,26.6,80,29.53,10.0,Calm,Calm,-,N/A,,Clear,0,2013-12-03 13:15:00
7:35 AM,30.2,24.8,80,29.52,10.0,North,3.5,-,N/A,,Clear,360,2013-12-03 13:35:00
7:55 AM,30.2,24.8,80,29.51,10.0,East,4.6,-,N/A,,Clear,90,2013-12-03 13:55:00
8:15 AM,33.8,26.6,75,29.51,10.0,NE,4.6,-,N/A,,Clear,50,2013-12-03 14:15:00
8:35 AM,35.6,28.4,75,29.53,10.0,North,3.5,-,N/A,,Clear,350,2013-12-03 14:35:00
8:55 AM,37.4,30.2,75,29.53,10.0,Calm,Calm,-,N/A,,Clear,0,2013-12-03 14:55:00
9:15 AM,42.8,33.8,70,29.54,10.0,Calm,Calm,-,N/A,,Clear,0,2013-12-03 15:15:00
9:35 AM,46.4,35.6,66,29.53,10.0,ESE,5.8,-,N/A,,Clear,120,2013-12-03 15:35:00
9:55 AM,51.8,37.4,58,29.53,10.0,ESE,8.1,-,N/A,,Clear,110,2013-12-03 15:55:00
10:15 AM,55.4,35.6,47,29.52,10.0,ESE,10.4,-,N/A,,Clear,110,2013-12-03 16:15:00
10:35 AM,57.2,37.4,48,29.51,10.0,ESE,13.8,-,N/A,,Clear,110,2013-12-03 16:35:00
10:55 AM,60.8,35.6,39,29.52,10.0,ESE,12.7,-,N/A,,Clear,110,2013-12-03 16:55:00
11:15 AM,60.8,33.8,36,29.51,10.0,ESE,12.7,-,N/A,,Clear,110,2013-12-03 17:15:00
11:35 AM,62.6,33.8,34,29.51,10.0,SE,11.5,-,N/A,,Clear,140,2013-12-03 17:35:00
11:55 AM,62.6,33.8,34,29.50,10.0,ESE,12.7,-,N/A,,Clear,120,2013-12-03 17:55:00
12:15 PM,62.6,33.8,34,29.49,10.0,SE,12.7,-,N/A,,Clear,130,2013-12-03 18:15:00
12:35 PM,64.4,33.8,32,29.48,10.0,SSE,13.8,19.6,N/A,,Clear,150,2013-12-03 18:35:00
12:55 PM,62.6,33.8,34,29.48,10.0,SSE,11.5,-,N/A,,Clear,150,2013-12-03 18:55:00
1:15 PM,62.6,33.8,34,29.47,10.0,South,9.2,-,N/A,,Clear,170,2013-12-03 19:15:00
1:35 PM,64.4,33.8,32,29.46,10.0,South,11.5,-,N/A,,Clear,190,2013-12-03 19:35:00
1:55 PM,62.6,33.8,34,29.46,10.0,SSE,10.4,-,N/A,,Clear,160,2013-12-03 19:55:00
2:15 PM,64.4,33.8,32,29.45,10.0,SSE,6.9,-,N/A,,Clear,160,2013-12-03 20:15:00
2:35 PM,62.6,33.8,34,29.44,10.0,SSE,6.9,-,N/A,,Clear,160,2013-12-03 20:35:00
2:55 PM,64.4,33.8,32,29.44,10.0,SSE,10.4,-,N/A,,Clear,150,2013-12-03 20:55:00
3:15 PM,64.4,33.8,32,29.45,10.0,South,8.1,-,N/A,,Clear,190,2013-12-03 21:15:00
3:35 PM,62.6,33.8,34,29.44,10.0,SSE,8.1,-,N/A,,Clear,150,2013-12-03 21:35:00
3:55 PM,62.6,33.8,34,29.44,10.0,SSE,8.1,-,N/A,,Clear,160,2013-12-03 21:55:00
4:15 PM,62.6,33.8,34,29.45,10.0,South,5.8,-,N/A,,Clear,180,2013-12-03 22:15:00
4:35 PM,60.8,35.6,39,29.47,10.0,SSW,6.9,-,N/A,,Clear,200,2013-12-03 22:35:00
4:55 PM,57.2,35.6,44,29.47,10.0,SSW,3.5,-,N/A,,Clear,200,2013-12-03 22:55:00
5:15 PM,55.4,35.6,47,29.48,10.0,Calm,Calm,-,N/A,,Clear,0,2013-12-03 23:15:00
5:35 PM,53.6,33.8,47,29.48,10.0,Calm,Calm,-,N/A,,Clear,0,2013-12-03 23:35:00
5:55 PM,50.0,33.8,54,29.48,10.0,ESE,3.5,-,N/A,,Clear,110,2013-12-03 23:55:00
6:15 PM,48.2,33.8,58,29.49,10.0,East,3.5,-,N/A,,Clear,100,2013-12-04 00:15:00
6:35 PM,46.4,33.8,62,29.50,10.0,NNE,12.7,18.4,N/A,,Clear,30,2013-12-04 00:35:00
6:55 PM,46.4,32.0,57,29.51,10.0,NE,15.0,-,N/A,,Clear,40,2013-12-04 00:55:00
7:15 PM,44.6,32.0,61,29.53,10.0,NE,16.1,-,N/A,,Clear,40,2013-12-04 01:15:00
7:35 PM,42.8,30.2,61,29.53,10.0,NE,17.3,23.0,N/A,,Clear,40,2013-12-04 01:35:00
7:55 PM,41.0,30.2,65,29.55,10.0,NNE,16.1,23.0,N/A,,Clear,30,2013-12-04 01:55:00
8:15 PM,39.2,30.2,70,29.56,10.0,NNE,10.4,21.9,N/A,,Clear,30,2013-12-04 02:15:00
8:35 PM,39.2,28.4,65,29.56,10.0,NNE,15.0,-,N/A,,Clear,30,2013-12-04 02:35:00
8:55 PM,37.4,28.4,70,29.57,9.0,NNE,13.8,25.3,N/A,,Clear,30,2013-12-04 02:55:00
9:15 PM,35.6,28.4,75,29.58,8.0,NNE,15.0,20.7,N/A,,Clear,30,2013-12-04 03:15:00
9:35 PM,35.6,28.4,75,29.58,8.0,NNE,16.1,19.6,N/A,,Clear,30,2013-12-04 03:35:00
9:55 PM,35.6,28.4,75,29.59,8.0,NNE,15.0,20.7,N/A,,Clear,20,2013-12-04 03:55:00
10:15 PM,35.6,28.4,75,29.60,7.0,NNE,16.1,-,N/A,,Mostly Cloudy,20,2013-12-04 04:15:00
10:35 PM,35.6,28.4,75,29.60,7.0,NNE,17.3,-,N/A,,Overcast,20,2013-12-04 04:35:00
10:55 PM,35.6,28.4,75,29.60,7.0,NNE,13.8,24.2,N/A,,Overcast,20,2013-12-04 04:55:00
11:15 PM,35.6,28.4,75,29.60,7.0,NNE,19.6,25.3,N/A,,Overcast,20,2013-12-04 05:15:00
11:35 PM,35.6,28.4,75,29.60,6.0,North,18.4,24.2,N/A,,Overcast,10,2013-12-04 05:35:00
11:55 PM,35.6,28.4,75,29.60,6.0,NNE,19.6,24.2,N/A,,Overcast,20,2013-12-04 05:55:00